| time (UTC) | temp F | wind direction | speed knots | gust knots | rain 1hr in | rain 24hr in | rain mn in | humidity % | barometer mb |
| 20260504000513 | 66 | 212 | 3.5 | 6.1 | 0.00 | 0.00 | 0.00 | 38 | 1004.7 |
| 20260504000012 | 67 | 195 | 2.6 | 8.7 | 0.00 | 0.00 | 0.00 | 37 | 1004.7 |
| 20260503235506 | 67 | 237 | 2.6 | 8.7 | 0.00 | 0.00 | 0.00 | 38 | 1004.6 |
| 20260503235007 | 67 | 250 | 3.5 | 7.8 | 0.00 | 0.00 | 0.00 | 37 | 1004.6 |
| 20260503234510 | 67 | 185 | 3.5 | 9.6 | 0.00 | 0.00 | 0.00 | 33 | 1004.6 |
| 20260503234006 | 67 | 210 | 4.3 | 9.6 | 0.00 | 0.00 | 0.00 | 37 | 1004.6 |
| 20260503233509 | 67 | 203 | 5.2 | 8.7 | 0.00 | 0.00 | 0.00 | 36 | 1004.5 |
| 20260503233023 | 67 | 198 | 4.3 | 8.7 | 0.00 | 0.00 | 0.00 | 37 | 1004.6 |
| 20260503232506 | 67 | 192 | 4.3 | 8.7 | 0.00 | 0.00 | 0.00 | 35 | 1004.7 |
| 20260503232007 | 67 | 244 | 5.2 | 8.7 | 0.00 | 0.00 | 0.00 | 36 | 1004.8 |
| 20260503231524 | 67 | 191 | 4.3 | 9.6 | 0.00 | 0.00 | 0.00 | 36 | 1004.9 |
| 20260503231013 | 67 | 238 | 5.2 | 10.4 | 0.00 | 0.00 | 0.00 | 36 | 1005.0 |
| 20260503230508 | 67 | 238 | 6.1 | 10.4 | 0.00 | 0.00 | 0.00 | 37 | 1005.0 |
| 20260503230022 | 67 | 186 | 4.3 | 11.3 | 0.00 | 0.00 | 0.00 | 36 | 1004.9 |
| 20260503225509 | 67 | 260 | 6.1 | 11.3 | 0.00 | 0.00 | 0.00 | 34 | 1005.0 |
| 20260503225003 | 67 | 198 | 4.3 | 11.3 | 0.00 | 0.00 | 0.00 | 37 | 1005.1 |
| 20260503224517 | 67 | 245 | 6.1 | 11.3 | 0.00 | 0.00 | 0.00 | 36 | 1005.3 |
| 20260503224008 | 67 | 201 | 5.2 | 9.6 | 0.00 | 0.00 | 0.00 | 36 | 1005.2 |
| 20260503223508 | 66 | 195 | 6.1 | 10.4 | 0.00 | 0.00 | 0.00 | 36 | 1005.1 |
| 20260503223016 | 66 | 211 | 5.2 | 12.2 | 0.00 | 0.00 | 0.00 | 37 | 1005.1 |
| 20260503222507 | 66 | 225 | 6.1 | 12.2 | 0.00 | 0.00 | 0.00 | 37 | 1005.1 |
| 20260503222010 | 66 | 201 | 5.2 | 12.2 | 0.00 | 0.00 | 0.00 | 39 | 1005.1 |
| 20260503221510 | 66 | 211 | 6.1 | 12.2 | 0.00 | 0.00 | 0.00 | 37 | 1005.1 |
| 20260503221009 | 66 | 204 | 5.2 | 12.2 | 0.00 | 0.00 | 0.00 | 37 | 1005.2 |
| 20260503220510 | 66 | 192 | 6.1 | 13.0 | 0.00 | 0.00 | 0.00 | 36 | 1005.2 |
| 20260503220031 | 66 | 206 | 6.1 | 13.0 | 0.00 | 0.00 | 0.00 | 38 | 1005.3 |
| 20260503215507 | 66 | 224 | 7.0 | 13.0 | 0.00 | 0.00 | 0.00 | 37 | 1005.4 |
| 20260503215010 | 65 | 210 | 4.3 | 13.0 | 0.00 | 0.00 | 0.00 | 37 | 1005.2 |
| 20260503214536 | 65 | 237 | 7.8 | 13.0 | 0.00 | 0.00 | 0.00 | 39 | 1005.3 |
| 20260503214006 | 65 | 194 | 6.1 | 13.9 | 0.00 | 0.00 | 0.00 | 37 | 1005.4 |
| 20260503213511 | 65 | 207 | 5.2 | 13.9 | 0.00 | 0.00 | 0.00 | 36 | 1005.4 |
| 20260503213031 | 65 | 200 | 5.2 | 12.2 | 0.00 | 0.00 | 0.00 | 37 | 1005.4 |
| 20260503212507 | 65 | 231 | 6.1 | 12.2 | 0.00 | 0.00 | 0.00 | 39 | 1005.5 |
| 20260503212013 | 65 | 197 | 6.1 | 12.2 | 0.00 | 0.00 | 0.00 | 37 | 1005.6 |
| 20260503211520 | 65 | 274 | 6.1 | 11.3 | 0.00 | 0.00 | 0.00 | 41 | 1005.7 |
| 20260503211013 | 65 | 254 | 7.8 | 11.3 | 0.00 | 0.00 | 0.00 | 38 | 1005.7 |
| 20260503210510 | 65 | 181 | 5.2 | 13.0 | 0.00 | 0.00 | 0.00 | 39 | 1005.7 |
| 20260503210019 | 65 | 184 | 6.1 | 13.0 | 0.00 | 0.00 | 0.00 | 39 | 1005.8 |
| 20260503205514 | 65 | 214 | 7.0 | 13.0 | 0.00 | 0.00 | 0.00 | 39 | 1005.9 |
| 20260503205013 | 64 | 174 | 4.3 | 13.9 | 0.00 | 0.00 | 0.00 | 39 | 1005.8 |
| 20260503204524 | 64 | 196 | 7.8 | 13.9 | 0.00 | 0.00 | 0.00 | 38 | 1006.0 |
| 20260503204010 | 64 | 205 | 8.7 | 14.8 | 0.00 | 0.00 | 0.00 | 37 | 1006.1 |
| 20260503203511 | 64 | 199 | 7.0 | 15.6 | 0.00 | 0.00 | 0.00 | 41 | 1006.1 |
| 20260503203028 | 63 | 210 | 7.8 | 15.6 | 0.00 | 0.00 | 0.00 | 39 | 1006.3 |
| 20260503202511 | 64 | 231 | 9.6 | 15.6 | 0.00 | 0.00 | 0.00 | 39 | 1006.3 |
| 20260503202009 | 63 | 207 | 6.1 | 12.2 | 0.00 | 0.00 | 0.00 | 41 | 1006.3 |
| 20260503201526 | 63 | 200 | 6.1 | 12.2 | 0.00 | 0.00 | 0.00 | 43 | 1006.5 |
| 20260503201009 | 62 | 186 | 5.2 | 14.8 | 0.00 | 0.00 | 0.00 | 44 | 1006.6 |
| 20260503200510 | 62 | 209 | 7.8 | 14.8 | 0.00 | 0.00 | 0.00 | 43 | 1006.7 |
| 20260503200023 | 62 | 196 | 10.4 | 14.8 | 0.00 | 0.00 | 0.00 | 42 | 1006.7 |
| 20260503195511 | 62 | 240 | 7.0 | 13.9 | 0.00 | 0.00 | 0.00 | 45 | 1006.8 |
| 20260503195009 | 62 | 200 | 8.7 | 13.9 | 0.00 | 0.00 | 0.00 | 42 | 1007.0 |
| 20260503194524 | 62 | 215 | 7.0 | 13.9 | 0.00 | 0.00 | 0.00 | 44 | 1007.0 |
| 20260503194009 | 61 | 220 | 7.8 | 13.0 | 0.00 | 0.00 | 0.00 | 45 | 1007.0 |
| 20260503193506 | 61 | 231 | 6.1 | 14.8 | 0.00 | 0.00 | 0.00 | 45 | 1007.2 |
| 20260503193022 | 61 | 232 | 7.0 | 14.8 | 0.00 | 0.00 | 0.00 | 44 | 1007.3 |
| 20260503192508 | 62 | 204 | 9.6 | 15.6 | 0.00 | 0.00 | 0.00 | 42 | 1007.2 |
| 20260503192013 | 62 | 207 | 7.0 | 16.5 | 0.00 | 0.00 | 0.00 | 40 | 1007.3 |
| 20260503191520 | 62 | 205 | 9.6 | 16.5 | 0.00 | 0.00 | 0.00 | 40 | 1007.3 |
| 20260503191009 | 62 | 187 | 7.8 | 16.5 | 0.00 | 0.00 | 0.00 | 43 | 1007.3 |
| 20260503190507 | 62 | 181 | 9.6 | 16.5 | 0.00 | 0.00 | 0.00 | 39 | 1007.2 |
| 20260503190038 | 62 | 246 | 9.6 | 17.4 | 0.00 | 0.00 | 0.00 | 41 | 1007.3 |
| 20260503185509 | 62 | 204 | 9.6 | 17.4 | 0.00 | 0.00 | 0.00 | 38 | 1007.3 |
| 20260503185008 | 63 | 201 | 8.7 | 17.4 | 0.00 | 0.00 | 0.00 | 39 | 1007.3 |
| 20260503184527 | 62 | 221 | 8.7 | 17.4 | 0.00 | 0.00 | 0.00 | 37 | 1007.4 |
| 20260503184006 | 62 | 205 | 9.6 | 16.5 | 0.00 | 0.00 | 0.00 | 36 | 1007.4 |
| 20260503183503 | 62 | 190 | 8.7 | 13.9 | 0.00 | 0.00 | 0.00 | 42 | 1007.3 |
| 20260503183011 | 62 | 207 | 7.0 | 12.2 | 0.00 | 0.00 | 0.00 | 42 | 1007.4 |
| 20260503182502 | 62 | 169 | 7.0 | 14.8 | 0.00 | 0.00 | 0.00 | 43 | 1007.6 |
| 20260503182002 | 61 | 210 | 6.1 | 14.8 | 0.00 | 0.00 | 0.00 | 44 | 1007.7 |
| 20260503181520 | 61 | 227 | 7.8 | 13.9 | 0.00 | 0.00 | 0.00 | 44 | 1007.8 |
| 20260503181004 | 61 | 217 | 7.0 | 13.9 | 0.00 | 0.00 | 0.00 | 43 | 1008.0 |
| 20260503180503 | 61 | 236 | 8.7 | 13.9 | 0.00 | 0.00 | 0.00 | 43 | 1008.1 |
| 20260503180013 | 60 | 218 | 7.8 | 14.8 | 0.00 | 0.00 | 0.00 | 44 | 1008.1 |
| 20260503175511 | 60 | 210 | 7.0 | 18.2 | 0.00 | 0.00 | 0.00 | 45 | 1008.2 |
| 20260503175002 | 60 | 204 | 6.1 | 18.2 | 0.00 | 0.00 | 0.00 | 47 | 1008.3 |
| 20260503174504 | 59 | 220 | 11.3 | 16.5 | 0.00 | 0.00 | 0.00 | 44 | 1008.4 |
| 20260503174005 | 59 | 172 | 7.0 | 11.3 | 0.00 | 0.00 | 0.00 | 47 | 1008.4 |
| 20260503173505 | 59 | 258 | 6.1 | 14.8 | 0.00 | 0.00 | 0.00 | 48 | 1008.6 |
| 20260503173004 | 58 | 206 | 9.6 | 14.8 | 0.00 | 0.00 | 0.00 | 48 | 1008.7 |
| 20260503172505 | 58 | 211 | 7.0 | 15.6 | 0.00 | 0.00 | 0.00 | 48 | 1008.9 |
| 20260503172006 | 58 | 215 | 7.8 | 15.6 | 0.00 | 0.00 | 0.00 | 49 | 1008.9 |
| 20260503171521 | 58 | 194 | 7.0 | 13.0 | 0.00 | 0.00 | 0.00 | 51 | 1009.2 |
| 20260503171003 | 58 | 202 | 6.1 | 13.0 | 0.00 | 0.00 | 0.00 | 51 | 1009.2 |
| 20260503170504 | 57 | 221 | 7.0 | 13.0 | 0.00 | 0.00 | 0.00 | 50 | 1009.3 |
| 20260503151005 | 53 | 224 | 7.8 | 13.9 | 0.00 | 0.00 | 0.00 | 60 | 1010.9 |
| 20260503150505 | 54 | 186 | 8.7 | 14.8 | 0.00 | 0.00 | 0.00 | 57 | 1010.9 |
| 20260503131007 | 51 | 219 | 6.1 | 10.4 | 0.00 | 0.00 | 0.00 | 54 | 1011.6 |
| 20260503130507 | 51 | 216 | 7.0 | 10.4 | 0.00 | 0.00 | 0.00 | 53 | 1011.6 |
| 20260503110509 | 48 | 214 | 4.3 | 7.8 | 0.00 | 0.00 | 0.00 | 52 | 1011.6 |
| 20260503090507 | 46 | 206 | 4.3 | 7.0 | 0.00 | 0.00 | 0.00 | 55 | 1012.4 |
| 20260503081515 | 46 | 209 | 2.6 | 4.3 | 0.00 | 0.00 | 0.00 | 56 | 1012.8 |
| 20260503081011 | 46 | 201 | 2.6 | 6.1 | 0.00 | 0.00 | 0.00 | 55 | 1012.8 |
| 20260503080508 | 46 | 206 | 3.5 | 6.1 | 0.00 | 0.00 | 0.00 | 54 | 1012.8 |
| 20260503072507 | 47 | 203 | 1.7 | 5.2 | 0.00 | 0.00 | 0.00 | 53 | 1013.1 |
| 20260503072009 | 47 | 207 | 1.7 | 5.2 | 0.00 | 0.00 | 0.00 | 53 | 1013.1 |
| 20260503071528 | 47 | 186 | 1.7 | 4.3 | 0.00 | 0.00 | 0.00 | 53 | 1013.1 |
| 20260503071009 | 47 | 210 | 1.7 | 4.3 | 0.00 | 0.00 | 0.00 | 54 | 1013.1 |
| 20260503070507 | 47 | 204 | 1.7 | 6.1 | 0.00 | 0.00 | 0.00 | 54 | 1013.1 |
| 20260503055006 | 47 | 207 | 2.6 | 5.2 | 0.00 | 0.00 | 0.00 | 52 | 1013.8 |
| 20260503054512 | 47 | 209 | 2.6 | 5.2 | 0.00 | 0.00 | 0.00 | 52 | 1013.8 |
| 20260503054006 | 47 | 208 | 2.6 | 7.0 | 0.00 | 0.00 | 0.00 | 51 | 1013.8 |
| 20260503053508 | 47 | 211 | 3.5 | 7.0 | 0.00 | 0.00 | 0.00 | 52 | 1013.9 |
| 20260503053013 | 48 | 205 | 3.5 | 5.2 | 0.00 | 0.00 | 0.00 | 50 | 1013.9 |
| 20260503052503 | 48 | 205 | 2.6 | 5.2 | 0.00 | 0.00 | 0.00 | 51 | 1013.9 |
| 20260503052010 | 48 | 205 | 3.5 | 5.2 | 0.00 | 0.00 | 0.00 | 49 | 1013.9 |
| 20260503051523 | 48 | 204 | 3.5 | 6.1 | 0.00 | 0.00 | 0.00 | 49 | 1014.0 |
| 20260503051003 | 48 | 202 | 3.5 | 6.1 | 0.00 | 0.00 | 0.00 | 50 | 1014.1 |
| 20260503050503 | 48 | 201 | 2.6 | 5.2 | 0.00 | 0.00 | 0.00 | 50 | 1014.0 |
| 20260503050018 | 48 | 208 | 2.6 | 5.2 | 0.00 | 0.00 | 0.00 | 50 | 1014.0 |
| 20260503045504 | 48 | 205 | 2.6 | 6.1 | 0.00 | 0.00 | 0.00 | 49 | 1014.0 |
| 20260503045006 | 48 | 207 | 2.6 | 6.1 | 0.00 | 0.00 | 0.00 | 49 | 1014.0 |
| 20260503044512 | 48 | 203 | 2.6 | 6.1 | 0.00 | 0.00 | 0.00 | 50 | 1014.0 |
| 20260503044006 | 48 | 201 | 3.5 | 5.2 | 0.00 | 0.00 | 0.00 | 50 | 1014.0 |
| 20260503043501 | 48 | 202 | 2.6 | 6.1 | 0.00 | 0.00 | 0.00 | 49 | 1014.1 |
| 20260503043010 | 48 | 205 | 3.5 | 6.1 | 0.00 | 0.00 | 0.00 | 50 | 1014.1 |
| 20260503042506 | 48 | 208 | 3.5 | 6.1 | 0.00 | 0.00 | 0.00 | 51 | 1014.1 |
| 20260503042010 | 48 | 204 | 3.5 | 7.8 | 0.00 | 0.00 | 0.00 | 50 | 1014.2 |
| 20260503041508 | 48 | 207 | 3.5 | 7.8 | 0.00 | 0.00 | 0.00 | 50 | 1014.2 |
| 20260503041005 | 48 | 209 | 3.5 | 6.1 | 0.00 | 0.00 | 0.00 | 49 | 1014.3 |
| 20260503040519 | 48 | 205 | 3.5 | 7.0 | 0.00 | 0.00 | 0.00 | 50 | 1014.3 |
| 20260503040013 | 48 | 213 | 3.5 | 7.0 | 0.00 | 0.00 | 0.00 | 51 | 1014.3 |
| 20260503035506 | 49 | 211 | 3.5 | 5.2 | 0.00 | 0.00 | 0.00 | 50 | 1014.4 |
| 20260503035007 | 49 | 205 | 2.6 | 5.2 | 0.00 | 0.00 | 0.00 | 50 | 1014.4 |
| 20260503034524 | 49 | 210 | 2.6 | 5.2 | 0.00 | 0.00 | 0.00 | 49 | 1014.4 |
| 20260503034003 | 49 | 205 | 2.6 | 5.2 | 0.00 | 0.00 | 0.00 | 49 | 1014.5 |
| 20260503033503 | 49 | 205 | 2.6 | 5.2 | 0.00 | 0.00 | 0.00 | 51 | 1014.5 |
| 20260503033022 | 49 | 198 | 2.6 | 4.3 | 0.00 | 0.00 | 0.00 | 49 | 1014.5 |
| 20260503032503 | 49 | 205 | 2.6 | 4.3 | 0.00 | 0.00 | 0.00 | 49 | 1014.5 |
| 20260503032007 | 49 | 208 | 1.7 | 3.5 | 0.00 | 0.00 | 0.00 | 49 | 1014.6 |
| 20260503031516 | 49 | 212 | 1.7 | 3.5 | 0.00 | 0.00 | 0.00 | 48 | 1014.7 |
| 20260503031010 | 49 | 198 | 1.7 | 3.5 | 0.00 | 0.00 | 0.00 | 48 | 1014.7 |
| 20260503030503 | 49 | 201 | 1.7 | 3.5 | 0.00 | 0.00 | 0.00 | 48 | 1014.7 |
| 20260503030014 | 49 | 203 | 1.7 | 4.3 | 0.00 | 0.00 | 0.00 | 48 | 1014.8 |
| 20260503025508 | 49 | 204 | 1.7 | 4.3 | 0.00 | 0.00 | 0.00 | 47 | 1014.9 |
| 20260503025002 | 49 | 193 | 1.7 | 4.3 | 0.00 | 0.00 | 0.00 | 47 | 1014.9 |
| 20260503024511 | 49 | 191 | 1.7 | 3.5 | 0.00 | 0.00 | 0.00 | 47 | 1014.8 |
| 20260503024008 | 50 | 192 | 1.7 | 3.5 | 0.00 | 0.00 | 0.00 | 46 | 1014.8 |
| 20260503023509 | 50 | 189 | 1.7 | 3.5 | 0.00 | 0.00 | 0.00 | 46 | 1014.9 |
| 20260503023008 | 50 | 188 | 0.9 | 2.6 | 0.00 | 0.00 | 0.00 | 45 | 1014.8 |
| 20260503022506 | 50 | 179 | 0.9 | 3.5 | 0.00 | 0.00 | 0.00 | 46 | 1014.8 |
| 20260503022007 | 50 | 167 | 1.7 | 3.5 | 0.00 | 0.00 | 0.00 | 45 | 1014.8 |
| 20260503021524 | 51 | 176 | 1.7 | 2.6 | 0.00 | 0.00 | 0.00 | 44 | 1014.8 |
| 20260503021005 | 51 | 175 | 1.7 | 2.6 | 0.00 | 0.00 | 0.00 | 43 | 1014.8 |
| 20260503020507 | 51 | 180 | 1.7 | 2.6 | 0.00 | 0.00 | 0.00 | 42 | 1014.7 |
| 20260503020020 | 51 | 197 | 0.0 | 1.7 | 0.00 | 0.00 | 0.00 | 42 | 1014.7 |
| 20260503015502 | 52 | 232 | 0.0 | 2.6 | 0.00 | 0.00 | 0.00 | 42 | 1014.7 |
| 20260503015009 | 52 | 232 | 0.9 | 3.5 | 0.00 | 0.00 | 0.00 | 44 | 1014.6 |
| 20260503014522 | 52 | 234 | 1.7 | 3.5 | 0.00 | 0.00 | 0.00 | 41 | 1014.6 |
| 20260503014008 | 52 | 214 | 1.7 | 3.5 | 0.00 | 0.00 | 0.00 | 40 | 1014.5 |
| 20260503013508 | 52 | 210 | 1.7 | 2.6 | 0.00 | 0.00 | 0.00 | 41 | 1014.5 |
| 20260503013016 | 53 | 198 | 0.9 | 2.6 | 0.00 | 0.00 | 0.00 | 41 | 1014.5 |
| 20260503012509 | 53 | 198 | 1.7 | 2.6 | 0.00 | 0.00 | 0.00 | 40 | 1014.5 |
| 20260503012004 | 53 | 198 | 1.7 | 3.5 | 0.00 | 0.00 | 0.00 | 39 | 1014.5 |
| 20260503011526 | 53 | 214 | 1.7 | 3.5 | 0.00 | 0.00 | 0.00 | 37 | 1014.5 |
| 20260503011006 | 53 | 209 | 0.9 | 3.5 | 0.00 | 0.00 | 0.00 | 36 | 1014.5 |
| 20260503010509 | 53 | 214 | 1.7 | 4.3 | 0.00 | 0.00 | 0.00 | 36 | 1014.5 |
| 20260503010011 | 54 | 211 | 1.7 | 4.3 | 0.00 | 0.00 | 0.00 | 35 | 1014.5 |
| 20260503005506 | 54 | 214 | 2.6 | 4.3 | 0.00 | 0.00 | 0.00 | 35 | 1014.5 |
| 20260503005014 | 54 | 220 | 1.7 | 4.3 | 0.00 | 0.00 | 0.00 | 37 | 1014.6 |
| 20260503004525 | 54 | 206 | 1.7 | 4.3 | 0.00 | 0.00 | 0.00 | 37 | 1014.5 |
| 20260503004006 | 54 | 210 | 1.7 | 4.3 | 0.00 | 0.00 | 0.00 | 34 | 1014.5 |
| 20260503003509 | 55 | 250 | 2.6 | 6.1 | 0.00 | 0.00 | 0.00 | 34 | 1014.5 |
| 20260503003024 | 55 | 207 | 2.6 | 7.0 | 0.00 | 0.00 | 0.00 | 35 | 1014.5 |
| 20260503002505 | 55 | 204 | 3.5 | 7.0 | 0.00 | 0.00 | 0.00 | 33 | 1014.6 |
| 20260503002007 | 55 | 202 | 2.6 | 5.2 | 0.00 | 0.00 | 0.00 | 32 | 1014.6 |
| 20260503001524 | 55 | 211 | 1.7 | 5.2 | 0.00 | 0.00 | 0.00 | 34 | 1014.7 |
| 20260503001011 | 55 | 204 | 2.6 | 5.2 | 0.00 | 0.00 | 0.00 | 35 | 1014.7 |